SCP
0 0 0 0 0 0 -0 -0 0 -0 0 -0 0 0 0 0 0 -0 -0 -0 -0 -0 -0 0 0 0 0 -0 0 0 -0 -0 -0 -0 -0 -0 -0 -0 -0 -0 -0 -0 -0 -0 -0 -0 -0 -0 -0
0 0 0 0 0 0 -0 0 -0 -0 -0 0 -0 0 0 0 0 -0 0 -0 0 0 -0 0 0 0 0 0 0 0 0 0 -0 -0 0 -0 -0 -0 -0 -0 -0 -0 -0 -0 -0 -0 -0 -0 -0
0 0 0 0 0 0 0 -0 -0 -0 -0 0 -0 0 0 0 -0 0 -0 0 0 0 0 0 0 0 0 0 0 0 0 -0 -0 -0 0 0 -0 -0 -0 -0 -0 -0 -0 -0 -0 -0 -0 -0 -0
0 0 0 0 0 0 0 -0 -0 -0 0 -0 -0 -0 0 0 0 -0 0 0 -0 0 -0 0 0 0 0 0 0 0 -0 -0 -0 0 -0 -0 0 0 -0 0 -0 -0 0 -0 -0 -0 -0 -0 -0
0 0 0 0 0 0 0 0 -0 -0 -0 -0 -0 -0 -0 -0 0 -0 -0 -0 -0 -0 -0 -0 -0 0 0 0 0 -0 -0 -0 -0 -0 -0 -0 0 -0 -0 0 0 -0 0 -0 -0 -0 -0 -0 -0
0 0 0 0 0 0 0 0 -0 0 -0 -0 -0 -0 -0 -0 -0 0 -0 0 0 -0 0 -0 -0 -0 -0 -0 0 -0 -0 -0 -0 0 -0 0 0 -0 -0 -0 -0 -0 -0 -0 -0 -0 0 0 0
0 0 0 0 0 0 0 0 0 0 0 0 0 0 -0 -0 -0 0 0 -0 -0 -0 0 -0 -0 -0 -0 -0 -0 -0 -0 -0 -0 -0 -0 -0 -0 -0 -0 -0 0 -0 0 -0 -0 -0 -0 -0 0
0 0 0 0 0 0 0 0 0 0 0 0 0 -0 -0 0 -0 0 0 -0 0 0 0 -0 -0 -0 -0 0 -0 -0 0 -0 -0 -0 0 -0 -0 0 0 -0 -0 -0 -0 -0 -0 -0 -0 0 0
0 0 0 0 0 0 0 0 0 0 0 0 0 0 0 -0 0 0 0 0 -0 -0 0 0 -0 -0 -0 -0 0 -0 -0 -0 0 -0 0 0 -0 0 -0 0 0 -0 -0 -0 -0 -0 -0 0 0
0 0 0 0 0 0 0 0 0 0 0 0 0 0 0 0 0 -0 0 0 0 0 0 0 -0 -0 -0 0 -0 -0 -0 -0 -0 -0 -0 -0 -0 -0 0 -0 -0 -0 -0 -0 -0 0 0 0 0
0 0 0 0 0 0 0 0 0 0 0 0 0 0 0 0 0 0 0 -0 -0 -0 -0 0 -0 -0 -0 -0 0 0 -0 -0 -0 -0 -0 -0 -0 -0 -0 0 -0 -0 0 0 0 0 0 0 0
0 0 0 0 0 0 0 0 0 0 0 0 0 0 0 0 0 -0 0 0 -0 -0 -0 0 0 0 -0 -0 -0 -0 0 0 0 0 0 0 -0 0 0 0 -0 0 0 0 0 0 0 0 0
0 0 0 0 0 0 0 0 0 0 0 0 0 0 0 0 0 0 0 0 0 -0 -0 -0 -0 -0 -0 -0 -0 -0 0 0 0 -0 -0 -0 -0 -0 -0 0 0 0 0 0 0 0 0 0 0
0 0 0 0 0 0 0 0 0 0 -0 0 0 0 0 0 0 0 0 0 0 0 -0 -0 -0 -0 -0 -0 -0 -0 -0 -0 0 -0 0 0 0 0 0 0 0 0 0 0 0 0 0 0 0
0 0 0 0 0 0 0 0 0 0 -0 -0 0 0 0 0 0 0 0 0 0 0 0 0 -0 -0 -0 -0 -0 -0 -0 -0 -0 0 -0 0 0 0 0 0 0 0 0 0 0 0 0 0 0
0 0 0 0 0 0 0 0 0 0 0 -0 0 0 0 0 0 0 0 0 0 0 0 0 0 -0 -0 0 0 0 0 0 0 0 0 0 0 0 0 0 0 0 0 0 0 0 0 0 0
0 0 0 0 0 0 0 0 0 0 0 0 -0 0 0 0 0 0 0 0 0 0 0 0 0 0 0 0 0 0 0 0 0 0 0 0 0 0 0 0 0 0 0 0 0 0 0 0 0
0 0 0 0 0 0 0 -0 0 0 0 0 0 0 0 0 0 0 0 0 0 0 0 0 0 0 0 0 0 0 0 0 0 0 0 0 0 0 0 0 0 0 0 0 0 0 0 0 0
0 0 0 0 0 0 0 0 0 0 0 0 0 0 0 0 0 0 0 0 0 0 0 0 0 0 0 0 0 0 0 0 0 0 0 0 0 0 0 0 0 0 0 0 0 0 0 0 0
0 0 0 0 0 0 0 0 -0 0 0 0 0 0 0 0 0 0 0 0 0 0 0 0 0 0 0 0 0 0 0 0 0 0 0 0 0 0 0 0 0 0 0 0 0 0 0 0 0
0 0 0 0 0 0 0 0 -0 -0 0 0 0 0 0 0 0 0 0 0 0 0 0 0 0 0 0 0 0 0 0 0 0 0 0 0 0 0 0 0 0 0 0 0 0 0 0 0 0
0 0 0 0 0 0 0 0 0 0 0 0 0 0 0 0 0 0 0 0 0 0 0 0 0 0 0 0 0 0 0 0 0 0 0 0 0 0 0 0 0 0 0 0 0 0 0 0 0
0 0 0 0 0 0 0 0 -0 0 0 0 0 0 0 0 0 0 0 0 0 0 0 0 0 0 0 0 0 0 0 0 0 0 0 0 0 0 0 0 0 0 0 0 0 0 0 0 0
0 0 0 0 0 0 0 0 0 0 0 0 0 0 0 0 0 0 0 0 0 0 0 0 0 0 0 0 0 0 0 0 0 0 0 0 0 0 0 0 0 0 0 0 0 0 0 0 0
0 0 0 0 0 0 0 0 0 0 0 0 0 0 0 0 0 0 0 0 0 0 0 0 0 0 0 0 0 0 0 0 0 0 0 0 0 0 0 0 0 0 0 0 0 0 0 0 0
0 0 0 0 0 0 0 0 0 0 0 0 0 -0 0 0 0 0 0 0 0 0 0 0 0 0 0 0 0 0 0 0 0 0 0 0 0 0 0 0 0 0 0 0 0 0 0 0 0
0 0 0 0 0 0 0 0 -0 0 0 0 0 0 -0 0 0 0 0 0 0 0 0 0 0 0 0 0 0 0 0 0 0 0 0 0 0 0 0 0 0 0 0 0 0 0 0 0 0
0 0 0 0 0 0 0 0 0 0 0 0 0 0 0 0 0 0 0 0 0 0 0 0 0 0 0 0 0 0 0 0 0 0 0 0 0 0 0 0 0 0 0 0 0 0 0 0 0
0 0 0 0 0 0 0 0 -0 -0 0 0 0 0 0 0 0 0 0 0 0 0 0 0 0 0 0 0 0 0 0 0 0 0 0 0 0 0 0 0 0 0 0 0 0 0 0 0 0
0 0 0 0 0 0 0 0 0 0 0 0 0 0 0 0 0 0 0 0 0 0 0 0 0 0 0 0 0 0 0 0 0 0 0 0 0 0 0 0 0 0 0 0 0 0 0 0 0
Wind_Speed_500mb
17 18 18 7 6 2 8 8 3 13 11 5 7 7 3 8 3 5 30 35 33 29 26 21 15 17 18 24 21 17 20 23 25 26 24 24 25 24 21 18 16 25 26 24 26 26 27 29 29
15 17 12 3 4 8 9 7 16 12 6 16 9 4 3 8 8 22 37 37 31 29 28 23 20 22 28 28 19 20 24 25 26 30 30 32 29 23 20 19 20 24 26 25 26 30 31 31 31
13 14 7 2 1 6 9 11 17 17 19 12 7 3 3 7 13 37 31 43 32 29 28 24 25 25 25 25 22 23 27 30 31 34 34 31 30 30 27 25 24 26 27 26 30 33 34 32 31
9 6 5 5 8 5 5 16 14 31 4 7 7 7 4 11 37 22 46 40 32 29 26 25 27 29 26 25 25 26 27 27 28 29 29 25 21 24 26 33 25 24 29 26 31 31 31 32 31
7 3 2 2 4 3 3 10 33 22 12 14 10 10 7 29 27 38 45 37 36 31 26 24 26 29 29 24 25 25 26 26 26 26 26 25 24 24 24 27 27 27 28 28 26 27 29 32 33
2 2 5 8 5 2 3 17 26 14 12 13 9 21 17 25 32 44 41 36 35 31 27 26 28 27 27 25 23 24 26 26 26 26 26 25 25 24 24 26 26 24 24 25 23 24 26 28 30
5 2 4 4 3 4 5 25 18 13 15 9 21 21 12 26 38 49 41 35 34 33 30 27 29 28 26 25 23 22 21 22 24 24 24 23 22 21 22 22 23 24 25 23 21 21 22 23 24
5 4 8 6 5 3 12 21 7 10 10 15 15 9 13 37 46 51 44 40 36 34 32 30 30 30 27 25 23 21 20 18 20 20 20 19 19 18 18 19 21 20 23 20 19 18 19 19 20
14 5 13 9 10 7 18 18 11 9 14 11 19 7 16 46 51 54 52 44 43 39 36 34 30 31 29 26 23 21 19 18 16 16 16 16 15 15 14 16 17 17 18 15 15 14 14 15 16
12 8 13 9 7 5 17 16 19 12 13 13 18 17 27 49 57 60 59 53 48 48 43 37 33 30 31 29 24 21 17 16 15 14 14 13 13 13 13 13 12 12 12 11 10 10 10 11 12
13 14 13 11 11 6 10 11 10 13 14 25 31 31 36 54 59 62 60 55 50 44 47 43 38 33 29 28 27 24 19 16 15 14 13 12 11 11 11 11 10 10 9 7 5 6 8 8 8
10 11 14 6 7 7 8 8 9 21 17 10 26 31 37 59 63 65 63 58 55 51 43 42 40 38 33 28 25 24 22 18 14 14 13 11 10 9 10 9 9 8 8 6 4 3 5 5 5
17 9 14 8 12 5 5 5 7 20 27 17 28 33 39 54 56 56 53 54 56 54 50 46 43 40 37 34 29 25 23 22 19 15 12 10 10 8 8 8 7 6 6 5 3 1 3 3 3
16 12 9 10 5 7 7 3 1 6 11 30 26 39 44 52 54 51 55 56 62 58 55 51 47 44 41 37 33 28 24 22 21 19 17 15 12 10 8 8 7 7 6 6 5 4 4 3 4
12 14 7 9 10 7 9 8 16 21 20 22 32 32 42 49 51 55 56 59 59 60 58 56 51 48 45 41 37 33 30 28 25 23 23 20 19 17 16 14 13 12 10 8 8 7 6 6 5
18 7 10 11 17 8 13 31 26 18 21 24 30 32 36 44 52 51 50 53 55 57 59 56 54 51 47 45 41 38 36 33 31 30 29 27 25 25 24 23 20 16 15 13 12 11 10 10 10
13 16 28 12 16 7 16 20 33 21 28 31 34 33 36 39 47 48 51 51 54 55 54 53 54 53 51 47 45 43 41 40 37 37 35 33 32 31 30 28 23 20 18 17 16 15 13 11 13
18 26 8 22 7 10 14 28 19 16 27 37 32 34 37 44 49 48 53 53 52 54 53 52 54 52 51 50 49 49 48 45 44 41 40 37 37 33 30 27 23 25 22 21 19 18 17 16 17
16 21 25 8 3 7 23 32 29 32 27 29 33 34 37 45 41 46 53 55 54 55 57 60 60 55 56 58 57 56 55 51 50 46 41 37 36 35 34 33 32 30 28 22 21 21 18 17 18
18 21 13 6 3 6 17 33 29 34 35 44 41 36 40 43 42 51 55 57 60 58 60 64 63 62 62 59 58 57 52 52 49 47 47 43 36 38 38 36 34 34 33 33 31 28 25 25 24
11 24 14 9 3 5 18 42 45 35 39 41 48 48 39 44 51 50 57 64 62 65 64 64 66 67 67 64 62 61 58 57 54 55 51 46 39 37 38 40 42 42 42 42 40 37 33 33 32
27 12 11 8 7 16 3 16 30 19 34 40 49 54 65 60 52 56 58 61 64 66 64 62 66 68 69 67 70 71 68 65 59 56 51 47 45 45 40 41 42 47 47 47 44 44 42 39 44
17 21 16 9 15 10 16 15 18 15 27 36 50 64 71 79 70 58 64 65 64 65 67 67 68 68 70 70 72 72 72 68 60 59 54 51 50 42 40 41 40 42 45 44 45 44 45 47 50
34 23 17 8 5 16 29 21 16 22 27 27 40 49 64 71 76 72 62 63 66 64 66 69 71 71 72 74 73 75 74 69 65 60 56 50 47 48 49 47 40 36 41 47 46 43 46 47 41
28 35 9 8 10 13 2 17 29 29 27 17 28 34 38 53 73 72 70 64 62 68 70 73 74 75 75 78 77 77 76 72 70 62 58 53 51 53 49 50 49 39 39 39 45 41 45 41 35
22 30 11 16 11 4 3 19 9 13 24 27 33 41 35 32 52 67 71 70 71 71 73 77 80 78 77 76 79 81 78 77 74 66 64 60 58 55 53 50 47 40 42 39 40 41 37 36 29
23 22 12 10 3 3 11 14 22 24 33 17 25 26 36 43 35 39 54 61 67 70 75 78 80 77 76 72 76 79 77 76 75 70 67 64 61 58 60 52 48 45 37 40 38 37 35 34 35
24 25 11 7 10 10 10 14 20 22 11 12 13 19 25 31 36 48 48 46 51 59 63 68 73 70 69 69 71 72 70 69 70 67 66 61 60 58 59 59 49 44 39 41 41 40 37 38 32
18 24 9 9 8 6 7 12 10 13 5 6 18 23 26 31 30 35 40 47 45 42 47 55 64 66 67 64 63 63 63 64 64 64 62 60 59 60 57 52 52 46 42 40 38 39 42 40 34
28 28 33 13 9 11 3 19 10 12 9 10 12 15 27 31 25 25 32 34 36 36 37 43 49 52 53 54 56 57 58 60 61 62 62 56 51 51 52 50 50 42 42 38 40 38 45 32 26
Wind_Direction_500mb
342 339 337 342 202 177 125 138 130 146 170 151 170 230 183 56 327 47 143 158 150 144 143 126 115 112 114 113 116 112 137 149 156 142 120 102 104 107 112 105 94 100 96 87 84 79 72 71 71
342 339 335 341 204 173 129 144 164 139 136 132 135 144 128 84 84 131 144 157 150 146 141 131 115 112 117 109 117 97 113 132 147 141 135 126 116 106 111 113 115 105 98 87 83 83 77 74 77
346 336 315 7 141 142 135 178 146 126 130 147 158 41 37 89 128 141 157 157 150 146 142 131 121 117 124 117 111 93 99 107 116 142 141 141 134 126 109 103 112 106 99 91 91 81 73 71 73
350 340 51 259 137 102 100 158 158 146 176 179 177 121 76 128 137 155 154 154 148 148 143 137 127 123 123 112 106 103 100 102 104 110 120 134 132 132 132 111 107 106 101 94 89 78 71 69 73
329 329 211 159 129 132 199 163 166 157 148 157 178 137 105 148 143 157 157 154 149 149 150 142 132 129 125 122 113 104 103 101 105 105 105 106 107 109 111 114 113 109 108 102 87 77 71 69 69
71 294 207 198 169 195 209 170 171 170 150 159 161 136 138 173 157 165 161 158 152 153 156 151 141 134 127 120 112 110 107 105 108 108 104 102 101 104 106 111 105 107 114 100 90 79 74 71 71
67 281 187 179 181 255 150 160 191 171 158 178 152 142 157 181 164 166 165 161 159 162 163 165 151 146 135 127 122 114 106 103 105 105 103 102 100 100 103 113 114 106 115 107 93 83 77 72 73
111 304 160 221 180 167 150 169 186 179 152 157 173 167 174 180 169 167 174 169 170 172 173 173 163 157 152 142 136 127 117 107 103 104 103 101 104 103 104 112 113 109 116 106 95 84 76 72 72
146 45 220 190 184 140 164 186 175 174 137 177 192 167 176 177 173 174 177 182 177 178 182 180 177 168 165 158 151 145 134 122 111 108 109 108 109 111 111 114 116 116 115 109 97 84 79 78 76
175 154 231 207 202 159 177 209 169 167 164 201 192 198 176 182 180 182 185 187 190 183 186 185 184 184 176 172 165 160 152 141 130 124 120 110 109 121 122 118 117 117 121 112 99 83 76 78 75
189 210 198 217 206 154 161 196 191 186 204 210 206 190 182 185 188 189 193 195 195 195 191 189 188 190 191 185 179 176 172 166 153 143 136 126 116 119 126 132 134 139 139 129 107 74 67 74 77
194 193 175 149 183 152 167 147 200 222 240 239 212 206 191 191 197 199 198 198 197 199 201 198 193 195 197 195 197 191 186 181 178 168 158 151 140 130 136 142 147 152 163 169 159 81 49 50 52
230 173 207 150 152 152 160 169 258 251 250 253 210 205 205 201 203 205 205 203 204 203 202 203 203 200 202 202 203 204 200 198 194 194 190 181 175 167 156 152 157 166 179 193 208 279 358 8 2
199 168 127 180 200 230 235 151 220 250 281 232 222 211 209 210 210 206 206 207 207 206 207 206 207 207 209 210 209 211 212 213 216 214 211 211 212 210 206 200 195 193 197 210 218 229 246 267 290
143 189 237 204 181 214 176 218 227 253 260 222 224 221 217 213 211 222 217 212 211 211 210 210 210 212 213 216 218 218 220 220 224 230 231 231 232 233 231 230 226 227 230 235 242 246 256 272 280
189 210 223 220 190 202 201 246 242 230 223 222 221 221 222 219 224 221 221 217 215 213 214 214 214 216 217 219 223 225 227 230 231 233 236 238 239 240 242 241 235 236 239 248 256 261 268 275 280
186 202 216 225 211 177 208 254 242 230 224 225 218 221 227 228 227 222 224 222 221 220 217 216 217 219 221 223 227 231 234 234 236 239 239 241 242 244 245 251 245 248 253 253 262 269 270 278 286
175 210 207 221 162 206 210 245 259 233 226 235 226 218 227 231 232 229 228 224 223 223 222 220 222 222 224 225 227 231 233 235 235 237 238 239 242 239 246 246 242 252 254 258 255 261 266 268 280
204 206 224 195 172 227 241 259 243 237 237 240 236 228 226 235 234 228 227 225 225 225 224 223 223 221 222 225 225 227 232 234 236 238 241 238 238 240 244 239 245 252 256 263 263 266 265 266 274
170 187 203 205 234 262 266 270 266 257 248 247 243 234 233 234 233 233 229 224 226 226 226 227 226 225 226 229 232 234 236 237 241 242 240 240 243 239 246 252 254 259 260 264 268 273 271 272 271
169 201 175 230 356 244 298 280 264 246 247 246 250 243 240 238 235 237 233 229 228 228 227 228 230 228 228 229 233 235 236 237 235 237 240 240 240 244 245 247 252 257 259 261 263 263 260 263 264
198 183 174 189 275 259 337 280 265 256 241 230 237 243 239 238 236 232 240 238 235 235 234 233 233 233 233 230 233 235 237 240 240 244 248 249 248 248 253 245 249 249 254 259 264 262 258 258 260
202 158 176 148 212 270 230 270 264 265 254 241 237 233 236 236 236 237 235 238 240 239 239 239 238 236 236 233 235 238 239 242 245 249 248 243 243 245 247 248 248 249 253 258 259 257 256 260 262
136 123 96 108 187 257 247 223 242 245 257 249 247 242 237 238 238 234 233 236 237 238 238 239 240 241 239 237 236 237 239 240 242 244 247 240 237 240 247 250 257 263 252 254 259 260 260 261 265
166 158 151 205 209 245 72 219 252 280 254 251 272 268 251 245 243 241 237 235 233 232 235 237 239 240 240 238 238 238 239 241 244 246 246 243 238 236 239 253 257 256 255 257 251 255 260 258 259
175 176 173 191 201 220 101 237 241 278 278 278 262 262 267 268 254 248 244 239 237 237 235 235 237 237 240 239 237 239 240 241 244 244 245 242 240 241 242 248 248 247 257 256 251 249 248 253 259
177 206 121 101 32 245 217 266 266 259 281 244 267 283 268 261 266 258 247 247 246 245 242 237 235 234 234 236 235 237 240 240 242 242 242 242 240 237 237 235 236 249 254 244 243 245 245 246 247
200 143 172 206 204 240 231 270 245 279 349 343 296 290 289 283 268 257 256 256 257 250 242 238 234 230 228 229 230 233 236 237 239 239 240 242 241 235 230 227 238 240 248 242 243 244 242 245 244
158 185 189 177 202 233 289 258 219 238 227 299 306 317 315 309 284 263 249 250 256 250 240 230 227 225 222 223 226 229 232 234 236 239 241 242 239 229 223 223 236 232 243 239 235 241 249 234 225
193 191 184 188 183 241 340 262 174 185 200 242 285 325 332 317 302 274 260 249 242 236 228 224 224 222 223 222 225 230 233 237 240 243 243 239 229 217 217 218 227 230 236 236 242 241 223 217 228
Wind_Speed_850mb
17 18 18 7 6 2 8 8 3 13 11 5 7 7 3 8 3 5 30 35 33 29 26 21 15 17 18 24 21 17 20 23 25 26 24 24 25 24 21 18 16 25 26 24 26 26 27 29 29
15 17 12 3 4 8 9 7 16 12 6 16 9 4 3 8 8 22 37 37 31 29 28 23 20 22 28 28 19 20 24 25 26 30 30 32 29 23 20 19 20 24 26 25 26 30 31 31 31
13 14 7 2 1 6 9 11 17 17 19 12 7 3 3 7 13 37 31 43 32 29 28 24 25 25 25 25 22 23 27 30 31 34 34 31 30 30 27 25 24 26 27 26 30 33 34 32 31
9 6 5 5 8 5 5 16 14 31 4 7 7 7 4 11 37 22 46 40 32 29 26 25 27 29 26 25 25 26 27 27 28 29 29 25 21 24 26 33 25 24 29 26 31 31 31 32 31
7 3 2 2 4 3 3 10 33 22 12 14 10 10 7 29 27 38 45 37 36 31 26 24 26 29 29 24 25 25 26 26 26 26 26 25 24 24 24 27 27 27 28 28 26 27 29 32 33
2 2 5 8 5 2 3 17 26 14 12 13 9 21 17 25 32 44 41 36 35 31 27 26 28 27 27 25 23 24 26 26 26 26 26 25 25 24 24 26 26 24 24 25 23 24 26 28 30
5 2 4 4 3 4 5 25 18 13 15 9 21 21 12 26 38 49 41 35 34 33 30 27 29 28 26 25 23 22 21 22 24 24 24 23 22 21 22 22 23 24 25 23 21 21 22 23 24
5 4 8 6 5 3 12 21 7 10 10 15 15 9 13 37 46 51 44 40 36 34 32 30 30 30 27 25 23 21 20 18 20 20 20 19 19 18 18 19 21 20 23 20 19 18 19 19 20
14 5 13 9 10 7 18 18 11 9 14 11 19 7 16 46 51 54 52 44 43 39 36 34 30 31 29 26 23 21 19 18 16 16 16 16 15 15 14 16 17 17 18 15 15 14 14 15 16
12 8 13 9 7 5 17 16 19 12 13 13 18 17 27 49 57 60 59 53 48 48 43 37 33 30 31 29 24 21 17 16 15 14 14 13 13 13 13 13 12 12 12 11 10 10 10 11 12
13 14 13 11 11 6 10 11 10 13 14 25 31 31 36 54 59 62 60 55 50 44 47 43 38 33 29 28 27 24 19 16 15 14 13 12 11 11 11 11 10 10 9 7 5 6 8 8 8
10 11 14 6 7 7 8 8 9 21 17 10 26 31 37 59 63 65 63 58 55 51 43 42 40 38 33 28 25 24 22 18 14 14 13 11 10 9 10 9 9 8 8 6 4 3 5 5 5
17 9 14 8 12 5 5 5 7 20 27 17 28 33 39 54 56 56 53 54 56 54 50 46 43 40 37 34 29 25 23 22 19 15 12 10 10 8 8 8 7 6 6 5 3 1 3 3 3
16 12 9 10 5 7 7 3 1 6 11 30 26 39 44 52 54 51 55 56 62 58 55 51 47 44 41 37 33 28 24 22 21 19 17 15 12 10 8 8 7 7 6 6 5 4 4 3 4
12 14 7 9 10 7 9 8 16 21 20 22 32 32 42 49 51 55 56 59 59 60 58 56 51 48 45 41 37 33 30 28 25 23 23 20 19 17 16 14 13 12 10 8 8 7 6 6 5
18 7 10 11 17 8 13 31 26 18 21 24 30 32 36 44 52 51 50 53 55 57 59 56 54 51 47 45 41 38 36 33 31 30 29 27 25 25 24 23 20 16 15 13 12 11 10 10 10
13 16 28 12 16 7 16 20 33 21 28 31 34 33 36 39 47 48 51 51 54 55 54 53 54 53 51 47 45 43 41 40 37 37 35 33 32 31 30 28 23 20 18 17 16 15 13 11 13
18 26 8 22 7 10 14 28 19 16 27 37 32 34 37 44 49 48 53 53 52 54 53 52 54 52 51 50 49 49 48 45 44 41 40 37 37 33 30 27 23 25 22 21 19 18 17 16 17
16 21 25 8 3 7 23 32 29 32 27 29 33 34 37 45 41 46 53 55 54 55 57 60 60 55 56 58 57 56 55 51 50 46 41 37 36 35 34 33 32 30 28 22 21 21 18 17 18
18 21 13 6 3 6 17 33 29 34 35 44 41 36 40 43 42 51 55 57 60 58 60 64 63 62 62 59 58 57 52 52 49 47 47 43 36 38 38 36 34 34 33 33 31 28 25 25 24
11 24 14 9 3 5 18 42 45 35 39 41 48 48 39 44 51 50 57 64 62 65 64 64 66 67 67 64 62 61 58 57 54 55 51 46 39 37 38 40 42 42 42 42 40 37 33 33 32
27 12 11 8 7 16 3 16 30 19 34 40 49 54 65 60 52 56 58 61 64 66 64 62 66 68 69 67 70 71 68 65 59 56 51 47 45 45 40 41 42 47 47 47 44 44 42 39 44
17 21 16 9 15 10 16 15 18 15 27 36 50 64 71 79 70 58 64 65 64 65 67 67 68 68 70 70 72 72 72 68 60 59 54 51 50 42 40 41 40 42 45 44 45 44 45 47 50
34 23 17 8 5 16 29 21 16 22 27 27 40 49 64 71 76 72 62 63 66 64 66 69 71 71 72 74 73 75 74 69 65 60 56 50 47 48 49 47 40 36 41 47 46 43 46 47 41
28 35 9 8 10 13 2 17 29 29 27 17 28 34 38 53 73 72 70 64 62 68 70 73 74 75 75 78 77 77 76 72 70 62 58 53 51 53 49 50 49 39 39 39 45 41 45 41 35
22 30 11 16 11 4 3 19 9 13 24 27 33 41 35 32 52 67 71 70 71 71 73 77 80 78 77 76 79 81 78 77 74 66 64 60 58 55 53 50 47 40 42 39 40 41 37 36 29
23 22 12 10 3 3 11 14 22 24 33 17 25 26 36 43 35 39 54 61 67 70 75 78 80 77 76 72 76 79 77 76 75 70 67 64 61 58 60 52 48 45 37 40 38 37 35 34 35
24 25 11 7 10 10 10 14 20 22 11 12 13 19 25 31 36 48 48 46 51 59 63 68 73 70 69 69 71 72 70 69 70 67 66 61 60 58 59 59 49 44 39 41 41 40 37 38 32
18 24 9 9 8 6 7 12 10 13 5 6 18 23 26 31 30 35 40 47 45 42 47 55 64 66 67 64 63 63 63 64 64 64 62 60 59 60 57 52 52 46 42 40 38 39 42 40 34
28 28 33 13 9 11 3 19 10 12 9 10 12 15 27 31 25 25 32 34 36 36 37 43 49 52 53 54 56 57 58 60 61 62 62 56 51 51 52 50 50 42 42 38 40 38 45 32 26
Wind_Direction_850mb
342 339 337 342 202 177 125 138 130 146 170 151 170 230 183 56 327 47 143 158 150 144 143 126 115 112 114 113 116 112 137 149 156 142 120 102 104 107 112 105 94 100 96 87 84 79 72 71 71
342 339 335 341 204 173 129 144 164 139 136 132 135 144 128 84 84 131 144 157 150 146 141 131 115 112 117 109 117 97 113 132 147 141 135 126 116 106 111 113 115 105 98 87 83 83 77 74 77
346 336 315 7 141 142 135 178 146 126 130 147 158 41 37 89 128 141 157 157 150 146 142 131 121 117 124 117 111 93 99 107 116 142 141 141 134 126 109 103 112 106 99 91 91 81 73 71 73
350 340 51 259 137 102 100 158 158 146 176 179 177 121 76 128 137 155 154 154 148 148 143 137 127 123 123 112 106 103 100 102 104 110 120 134 132 132 132 111 107 106 101 94 89 78 71 69 73
329 329 211 159 129 132 199 163 166 157 148 157 178 137 105 148 143 157 157 154 149 149 150 142 132 129 125 122 113 104 103 101 105 105 105 106 107 109 111 114 113 109 108 102 87 77 71 69 69
71 294 207 198 169 195 209 170 171 170 150 159 161 136 138 173 157 165 161 158 152 153 156 151 141 134 127 120 112 110 107 105 108 108 104 102 101 104 106 111 105 107 114 100 90 79 74 71 71
67 281 187 179 181 255 150 160 191 171 158 178 152 142 157 181 164 166 165 161 159 162 163 165 151 146 135 127 122 114 106 103 105 105 103 102 100 100 103 113 114 106 115 107 93 83 77 72 73
111 304 160 221 180 167 150 169 186 179 152 157 173 167 174 180 169 167 174 169 170 172 173 173 163 157 152 142 136 127 117 107 103 104 103 101 104 103 104 112 113 109 116 106 95 84 76 72 72
146 45 220 190 184 140 164 186 175 174 137 177 192 167 176 177 173 174 177 182 177 178 182 180 177 168 165 158 151 145 134 122 111 108 109 108 109 111 111 114 116 116 115 109 97 84 79 78 76
175 154 231 207 202 159 177 209 169 167 164 201 192 198 176 182 180 182 185 187 190 183 186 185 184 184 176 172 165 160 152 141 130 124 120 110 109 121 122 118 117 117 121 112 99 83 76 78 75
189 210 198 217 206 154 161 196 191 186 204 210 206 190 182 185 188 189 193 195 195 195 191 189 188 190 191 185 179 176 172 166 153 143 136 126 116 119 126 132 134 139 139 129 107 74 67 74 77
194 193 175 149 183 152 167 147 200 222 240 239 212 206 191 191 197 199 198 198 197 199 201 198 193 195 197 195 197 191 186 181 178 168 158 151 140 130 136 142 147 152 163 169 159 81 49 50 52
230 173 207 150 152 152 160 169 258 251 250 253 210 205 205 201 203 205 205 203 204 203 202 203 203 200 202 202 203 204 200 198 194 194 190 181 175 167 156 152 157 166 179 193 208 279 358 8 2
199 168 127 180 200 230 235 151 220 250 281 232 222 211 209 210 210 206 206 207 207 206 207 206 207 207 209 210 209 211 212 213 216 214 211 211 212 210 206 200 195 193 197 210 218 229 246 267 290
143 189 237 204 181 214 176 218 227 253 260 222 224 221 217 213 211 222 217 212 211 211 210 210 210 212 213 216 218 218 220 220 224 230 231 231 232 233 231 230 226 227 230 235 242 246 256 272 280
189 210 223 220 190 202 201 246 242 230 223 222 221 221 222 219 224 221 221 217 215 213 214 214 214 216 217 219 223 225 227 230 231 233 236 238 239 240 242 241 235 236 239 248 256 261 268 275 280
186 202 216 225 211 177 208 254 242 230 224 225 218 221 227 228 227 222 224 222 221 220 217 216 217 219 221 223 227 231 234 234 236 239 239 241 242 244 245 251 245 248 253 253 262 269 270 278 286
175 210 207 221 162 206 210 245 259 233 226 235 226 218 227 231 232 229 228 224 223 223 222 220 222 222 224 225 227 231 233 235 235 237 238 239 242 239 246 246 242 252 254 258 255 261 266 268 280
204 206 224 195 172 227 241 259 243 237 237 240 236 228 226 235 234 228 227 225 225 225 224 223 223 221 222 225 225 227 232 234 236 238 241 238 238 240 244 239 245 252 256 263 263 266 265 266 274
170 187 203 205 234 262 266 270 266 257 248 247 243 234 233 234 233 233 229 224 226 226 226 227 226 225 226 229 232 234 236 237 241 242 240 240 243 239 246 252 254 259 260 264 268 273 271 272 271
169 201 175 230 356 244 298 280 264 246 247 246 250 243 240 238 235 237 233 229 228 228 227 228 230 228 228 229 233 235 236 237 235 237 240 240 240 244 245 247 252 257 259 261 263 263 260 263 264
198 183 174 189 275 259 337 280 265 256 241 230 237 243 239 238 236 232 240 238 235 235 234 233 233 233 233 230 233 235 237 240 240 244 248 249 248 248 253 245 249 249 254 259 264 262 258 258 260
202 158 176 148 212 270 230 270 264 265 254 241 237 233 236 236 236 237 235 238 240 239 239 239 238 236 236 233 235 238 239 242 245 249 248 243 243 245 247 248 248 249 253 258 259 257 256 260 262
136 123 96 108 187 257 247 223 242 245 257 249 247 242 237 238 238 234 233 236 237 238 238 239 240 241 239 237 236 237 239 240 242 244 247 240 237 240 247 250 257 263 252 254 259 260 260 261 265
166 158 151 205 209 245 72 219 252 280 254 251 272 268 251 245 243 241 237 235 233 232 235 237 239 240 240 238 238 238 239 241 244 246 246 243 238 236 239 253 257 256 255 257 251 255 260 258 259
175 176 173 191 201 220 101 237 241 278 278 278 262 262 267 268 254 248 244 239 237 237 235 235 237 237 240 239 237 239 240 241 244 244 245 242 240 241 242 248 248 247 257 256 251 249 248 253 259
177 206 121 101 32 245 217 266 266 259 281 244 267 283 268 261 266 258 247 247 246 245 242 237 235 234 234 236 235 237 240 240 242 242 242 242 240 237 237 235 236 249 254 244 243 245 245 246 247
200 143 172 206 204 240 231 270 245 279 349 343 296 290 289 283 268 257 256 256 257 250 242 238 234 230 228 229 230 233 236 237 239 239 240 242 241 235 230 227 238 240 248 242 243 244 242 245 244
158 185 189 177 202 233 289 258 219 238 227 299 306 317 315 309 284 263 249 250 256 250 240 230 227 225 222 223 226 229 232 234 236 239 241 242 239 229 223 223 236 232 243 239 235 241 249 234 225
193 191 184 188 183 241 340 262 174 185 200 242 285 325 332 317 302 274 260 249 242 236 228 224 224 222 223 222 225 230 233 237 240 243 243 239 229 217 217 218 227 230 236 236 242 241 223 217 228